GW5745 Weather Reports


time (UTC)temp
F
wind
direction
speed
knots
gust
knots
rain 1hr
in
rain 24hr
in
rain mn
in
humidity
%
barometer
mb
20260502163510 76 188 2.6 10.4 0.00 0.00 0.00 49 1014.9
20260502163023 76 123 1.7 4.3 0.00 0.00 0.00 47 1015.0
20260502162512 76 218 0.9 7.0 0.00 0.00 0.00 47 1015.1
20260502160512 76 296 1.7 6.1 0.00 0.00 0.00 48 1015.2
20260502152011 76 250 4.3 7.8 0.00 0.00 0.00 47 1015.7
20260502151530 76 151 4.3 7.8 0.00 0.00 0.00 47 1015.7
20260502151013 76 171 3.5 8.7 0.00 0.00 0.00 46 1015.9
20260502130503 76 194 3.5 9.6 0.00 0.00 0.00 48 1017.1
20260502122003 75 200 7.0 15.6 0.00 0.00 0.00 47 1017.5
20260502121004 76 212 5.2 11.3 0.00 0.00 0.00 48 1017.6
20260502120504 75 146 3.5 7.8 0.00 0.00 0.00 47 1017.6
20260502115504 75 200 3.5 9.6 0.00 0.00 0.00 49 1017.7
20260502115003 74 165 1.7 10.4 0.00 0.00 0.00 50 1017.8
20260502114508 74 207 4.3 10.4 0.00 0.00 0.00 49 1017.8
20260502114003 74 194 4.3 8.7 0.00 0.00 0.00 50 1018.0
20260502113503 74 190 3.5 11.3 0.00 0.00 0.00 49 1018.0
20260502112503 73 215 5.2 9.6 0.00 0.00 0.00 50 1018.2
20260502111504 72 250 3.5 8.7 0.00 0.00 0.00 52 1018.2
20260502110503 71 195 5.2 8.7 0.00 0.00 0.00 51 1018.2
20260502110008 71 200 3.5 7.8 0.00 0.00 0.00 51 1018.2
20260502105504 71 178 2.6 9.6 0.00 0.00 0.00 50 1018.2
20260502105003 71 230 4.3 9.6 0.00 0.00 0.00 51 1018.2
20260502104515 70 203 4.3 8.7 0.00 0.00 0.00 51 1018.3
20260502104003 70 170 3.5 8.7 0.00 0.00 0.00 51 1018.4
20260502103503 70 180 2.6 8.7 0.00 0.00 0.00 50 1018.4
20260502103011 70 177 5.2 8.7 0.00 0.00 0.00 49 1018.4
20260502102506 70 197 3.5 7.8 0.00 0.00 0.00 50 1018.5
20260502102006 70 202 4.3 11.3 0.00 0.00 0.00 49 1018.5
20260502101508 70 360 4.3 11.3 0.00 0.00 0.00 49 1018.6
20260502101002 70 185 3.5 9.6 0.00 0.00 0.00 47 1018.6
20260502100502 70 177 0.9 8.7 0.00 0.00 0.00 49 1018.6
20260502091511 70 153 3.5 9.6 0.00 0.00 0.00 44 1018.8
20260502091003 70 360 5.2 9.6 0.00 0.00 0.00 44 1018.9
20260502071514 62 207 1.7 6.1 0.00 0.00 0.00 51 1019.1
20260502071007 61 165 2.6 6.1 0.00 0.00 0.00 52 1019.2
20260502070508 61 202 0.9 7.0 0.00 0.00 0.00 53 1019.2
20260502070017 60 360 3.5 7.0 0.00 0.00 0.00 54 1019.1
20260502065507 60 144 1.7 6.1 0.00 0.00 0.00 54 1019.1
20260502065013 59 128 1.7 6.1 0.00 0.00 0.00 55 1019.2
20260502064519 59 101 2.6 6.1 0.00 0.00 0.00 55 1019.2
20260502064012 59 153 0.9 5.2 0.00 0.00 0.00 57 1019.3
20260502063017 58 168 4.3 8.7 0.00 0.00 0.00 58 1019.3
20260502062516 57 181 1.7 7.8 0.00 0.00 0.00 59 1019.3
20260502062006 57 227 1.7 9.6 0.00 0.00 0.00 60 1019.3
20260502061510 56 212 2.6 9.6 0.00 0.00 0.00 60 1019.3
20260502061005 56 227 2.6 7.0 0.00 0.00 0.00 61 1019.3
20260502060507 55 134 3.5 7.0 0.00 0.00 0.00 62 1019.2
20260502060018 55 150 0.9 4.3 0.00 0.00 0.00 63 1019.1
20260502055505 54 143 1.7 6.1 0.00 0.00 0.00 64 1019.1
20260502055010 53 129 2.6 6.1 0.00 0.00 0.00 65 1019.1
20260502054810 53 144 1.7 0.0 0.00 0.00 0.00 66 1019.1
20260502054802 53 148 0.0 0.0 0.00 0.00 0.00 60 1021.1
20260502054758 53 148 0.0 1.7 0.00 0.00 0.00 60 1021.2
20260502054754 53 148 0.0 1.7 0.00 0.00 0.00 59 1021.2
20260502054748 53 148 0.0 0.0 0.00 0.00 0.00 60 1021.2
20260502054745 53 148 0.0 1.7 0.00 0.00 0.00 59 1021.3
20260502054737 54 148 0.0 1.7 0.00 0.00 0.00 58 1021.4
20260502054735 54 148 0.0 1.7 0.00 0.00 0.00 58 1021.3
20260502054727 54 134 0.0 1.7 0.00 0.00 0.00 58 1021.3
20260502054722 54 136 0.0 1.7 0.00 0.00 0.00 57 1021.4
20260502054720 54 144 0.0 1.7 0.00 0.00 0.00 57 1021.4
20260502054717 54 134 0.0 1.7 0.00 0.00 0.00 58 1021.3
20260502054710 54 94 0.0 1.7 0.00 0.00 0.00 57 1021.4
20260502054705 54 136 0.0 1.7 0.00 0.00 0.00 57 1021.4
20260502054701 55 144 0.0 1.7 0.00 0.00 0.00 56 1021.4
20260502054655 55 147 0.0 1.7 0.00 0.00 0.00 56 1021.4
20260502054650 55 149 0.0 1.7 0.00 0.00 0.00 57 1021.4
20260502054648 55 155 0.0 1.7 0.00 0.00 0.00 56 1021.4
20260502054644 55 117 0.0 1.7 0.00 0.00 0.00 56 1021.5
20260502054637 56 105 0.0 1.7 0.00 0.00 0.00 56 1021.5
20260502054632 56 105 0.0 1.7 0.00 0.00 0.00 55 1021.5
20260502054628 56 105 0.0 1.7 0.00 0.00 0.00 55 1021.6
20260502054623 56 105 0.0 0.9 0.00 0.00 0.00 55 1021.6
20260502054616 56 105 0.0 1.7 0.00 0.00 0.00 55 1021.6
20260502054612 56 105 0.0 1.7 0.00 0.00 0.00 55 1021.6
20260502054608 56 102 0.0 1.7 0.00 0.00 0.00 55 1021.6
20260502054556 56 114 0.0 1.7 0.00 0.00 0.00 55 1021.7
20260502054550 57 114 0.0 1.7 0.00 0.00 0.00 54 1021.7
20260502054548 57 114 0.0 1.7 0.00 0.00 0.00 54 1021.7
20260502054539 57 109 0.0 1.7 0.00 0.00 0.00 54 1021.6
20260502054529 57 109 0.0 1.7 0.00 0.00 0.00 54 1021.7
20260502054454 57 109 0.0 0.0 0.00 0.00 0.00 54 1021.7
20260502054441 57 109 0.0 1.7 0.00 0.00 0.00 53 1021.7
20260502054430 58 109 0.0 1.7 0.00 0.00 0.00 54 1021.7
20260502054424 58 109 0.0 1.7 0.00 0.00 0.00 53 1021.7
20260502054404 58 109 0.0 0.0 0.00 0.00 0.00 51 1021.7
20260501235030 59 109 0.0 0.0 0.00 0.00 0.00 51 1021.8
20260501225648 59 109 0.0 0.0 0.00 0.00 0.00 50 1021.8
20260501221927 59 109 0.0 1.7 0.00 0.00 0.00 49 1021.8
20260501215822 60 109 0.0 1.7 0.00 0.00 0.00 49 1021.9
20260501213347 60 109 0.0 1.7 0.00 0.00 0.00 49 1021.9
20260501211128 60 109 0.0 1.7 0.00 0.00 0.00 48 1021.9
20260501210535 60 109 0.0 0.0 0.00 0.00 0.00 48 1021.9
20260501205357 61 109 0.0 0.0 0.00 0.00 0.00 47 1021.9
20260501204215 61 109 0.0 0.9 0.00 0.00 0.00 46 1022.0
20260501203408 62 109 0.0 1.7 0.00 0.00 0.00 46 1022.0
20260501202447 62 109 0.0 1.7 0.00 0.00 0.00 45 1022.0
20260501201635 62 109 0.0 0.9 0.00 0.00 0.00 45 1022.0
20260501200930 63 109 0.0 0.0 0.00 0.00 0.00 43 1022.0
20260501200558 63 109 0.0 1.7 0.00 0.00 0.00 42 1022.0
20260501195906 64 109 0.0 1.7 0.00 0.00 0.00 42 1022.0
20260501195315 64 109 0.0 1.7 0.00 0.00 0.00 41 1021.9
20260501194724 64 109 0.0 1.7 0.00 0.00 0.00 40 1021.9
20260501194130 65 157 0.0 1.7 0.00 0.00 0.00 40 1021.9
20260501193504 65 157 0.0 1.7 0.00 0.00 0.00 39 1021.8
20260501193025 66 160 0.0 1.7 0.00 0.00 0.00 37 1021.9
20260501192627 67 160 0.0 1.7 0.00 0.00 0.00 36 1021.8
20260501192152 67 153 0.9 2.6 0.00 0.00 0.00 36 1021.8
20260501191714 68 158 0.0 2.6 0.00 0.00 0.00 35 1021.8
20260501191008 68 159 0.9 2.6 0.00 0.00 0.00 34 1021.8
20260501190513 69 149 0.0 2.6 0.00 0.00 0.00 33 1021.7
20260501190029 69 162 0.9 2.6 0.00 0.00 0.00 33 1021.8
20260501185507 70 184 0.9 4.3 0.00 0.00 0.00 33 1021.7
20260501185008 70 163 0.9 4.3 0.00 0.00 0.00 33 1021.8
20260501184504 70 170 1.7 3.5 0.00 0.00 0.00 32 1021.8
20260501184009 71 179 0.9 3.5 0.00 0.00 0.00 32 1021.7
20260501183511 71 196 0.9 3.5 0.00 0.00 0.00 31 1021.8
20260501183017 71 148 0.9 4.3 0.00 0.00 0.00 30 1021.8
20260501182507 72 187 0.9 4.3 0.00 0.00 0.00 30 1021.8
20260501182007 72 184 0.9 3.5 0.00 0.00 0.00 29 1021.7
20260501181525 72 159 0.9 6.1 0.00 0.00 0.00 29 1021.7
20260501181009 73 153 0.9 6.1 0.00 0.00 0.00 28 1021.7
20260501174513 74 138 2.6 7.8 0.00 0.00 0.00 27 1021.6
20260501174006 74 113 3.5 7.0 0.00 0.00 0.00 26 1021.6
20260501173010 75 148 2.6 8.7 0.00 0.00 0.00 26 1021.6
20260501171506 76 138 4.3 8.7 0.00 0.00 0.00 24 1021.6
20260501171010 76 132 2.6 9.6 0.00 0.00 0.00 25 1021.6
20260501170509 76 151 3.5 9.6 0.00 0.00 0.00 25 1021.6
20260501170024 76 161 3.5 11.3 0.00 0.00 0.00 25 1021.6
20260501165506 76 172 4.3 11.3 0.00 0.00 0.00 24 1021.6
20260501165009 77 149 3.5 9.6 0.00 0.00 0.00 24 1021.6